Regional Weather Roundup
Issued by NWS Cleveland, OH

Home | Current Version | Previous Version | Graphics & Text | Print | Product List | Glossary On
Versions: 1 2 3 4 5 6 7 8 9 10 11 12 13 14 15 16 17 18 19 20 21 22 23 24 25 26 27 28 29 30 31 32 33 34 35 36 37 38 39 40 41 42 43 44 45 46 47 48 49 50
000
ASUS41 KCLE 250402
RWRCLE
OHIO REGIONAL WEATHER ROUNDUP
NATIONAL WEATHER SERVICE CLEVELAND, OH
1100 PM EST SAT FEB 24 2018

NOTE: "FAIR" INDICATES FEW OR NO CLOUDS BELOW 12,000 FEET WITH NO
SIGNIFICANT WEATHER AND/OR OBSTRUCTIONS TO VISIBILITY.

OHZ001>008-015>018-024>027-034-035-043-044-250500-
   NORTHWEST OHIO

CITY           SKY/WX    TMP DP  RH WIND       PRES   REMARKS
DEFIANCE       LGT RAIN  38  36  92 E17G25    29.69F FOG
FINDLAY        HVY RAIN  43  40  89 E8        29.80F FOG
TOLEDO EXPRESS RAIN      37  37 100 E14       29.80F FOG
TOLEDO EXEC    RAIN      37  35  92 E13       29.85F FOG
LIMA           LGT RAIN  47  47 100 SE14      29.76F
$$

OHZ009>014-019>023-028>033-038-089-250500-
   NORTHEAST OHIO

CITY           SKY/WX    TMP DP  RH WIND       PRES   REMARKS
CLE-HOPKINS    LGT RAIN  46  43  89 SE6       29.89F
CLE-LAKEFRONT  MIX PCPN  37  34  89 NE7       29.87F
CUY CO. ARPT   CLOUDY    45  43  93 E10       29.87F
LORAIN-ELYRIA  RAIN      41  36  82 NE10      29.86F
ASHTABULA      CLOUDY    39  37  92 E7        29.91F
AKRON-CANTON   RAIN      47  44  90 SE14      29.86F FOG
WOOSTER        RAIN      46  45  96 SE8       29.87F FOG
MANSFIELD      RAIN      47  46  97 SE14      29.83F FOG
YOUNGSTOWN     LGT RAIN  46  43  89 SE14      29.90F
$$

OHZ042-051>053-060>062-070>072-077>081-250500-
  SOUTHWEST OHIO

CITY           SKY/WX    TMP DP  RH WIND       PRES   REMARKS
CINC-COVINGTON HVY RAIN  54  54 100 SW14G23   29.75S FOG
CINC-LUNKEN    LGT RAIN  52  52 100 NE5       29.73F
HAMILTON       HVY RAIN  54  53  97 NE6       29.72F FOG
DAYTON         HVY RAIN  49  49 100 E6        29.78F FOG
WRIGHT-PAT AFB LGT RAIN  50  49  94 CALM      29.78R FOG
DAYTON GENERAL HVY RAIN  54  52  93 NE7       29.73F FOG
WILMINGTON     RAIN      52  52 100 VRB5      29.76F FOG
$$

OHZ036-037-039>041-045>050-054>059-063>069-073>076-082>088-250500-
  CENTRAL AND SOUTHEAST OHIO

CITY           SKY/WX    TMP DP  RH WIND       PRES   REMARKS
COLUMBUS       LGT RAIN  50  50 100 E8        29.80F FOG
OSU AIRPORT    HVY RAIN  49  49 100 E8        29.80F FOG
BOLTON FIELD   HVY RAIN  48  48 100 E7        29.80F
RICKENBACK AFB RAIN      49  49 100 E8        29.79F
NEWARK         HVY RAIN  49  48  97 E5        29.82F FOG
MARION         LGT RAIN  48  46  93 SE12      29.81F FOG
LANCASTER      RAIN      50  50 100 SE9       29.83F FOG
ZANESVILLE     LGT RAIN  50  47  89 SE13      29.83F
NEW PHILLY     NOT AVBL
$$




USA.gov is the U.S. government's official web portal to all federal, state and local government web resources and services.